Wind_Speed
2 2 2 3 2 2 2 2 3 3 3 3 3 3 2 3 4 4 5 6 7 7 7 7 9 10 10 9 9 8 7 7 6 5 4 4 3 2 2 2 2 2 2
2 2 2 2 2 1 1 2 2 2 3 3 3 3 4 4 4 6 7 7 8 7 7 8 8 9 9 7 7 7 6 6 6 5 3 3 3 2 1 1 1 2 2
2 2 2 2 2 2 2 2 2 2 3 3 3 4 5 5 7 8 8 8 8 8 8 8 8 8 7 7 8 7 6 7 6 4 3 3 2 2 2 1 2 2 2
3 3 3 3 2 2 1 1 2 2 3 3 4 4 6 7 8 8 9 8 8 8 8 7 8 8 9 8 7 6 6 5 4 4 3 3 2 2 2 3 3 3 2
4 4 3 3 4 3 2 2 1 1 3 3 4 5 6 7 8 8 8 8 7 7 8 9 8 9 8 7 6 7 6 4 3 3 4 3 2 3 3 3 3 4 3
4 5 5 4 5 4 3 2 1 2 3 3 4 5 7 8 8 8 8 8 8 8 8 8 8 8 7 6 6 6 5 5 4 4 4 4 3 3 3 3 3 3 3
4 5 5 5 5 4 4 3 2 1 4 4 4 5 6 7 7 8 7 8 7 7 7 7 7 7 6 5 5 5 4 4 4 4 4 3 3 4 3 3 3 3 4
5 5 5 5 4 5 4 3 3 3 4 5 5 6 6 6 7 7 7 7 6 6 7 6 5 6 6 5 4 4 3 4 4 4 4 3 3 4 4 4 4 4 4
5 5 5 5 5 5 5 4 3 4 4 5 5 6 6 6 7 6 6 6 5 5 5 5 5 5 5 4 4 3 3 4 4 4 4 4 3 3 4 4 4 4 4
6 6 5 5 5 5 5 5 4 4 5 5 5 6 6 6 7 7 6 6 5 5 4 4 4 4 3 3 2 3 3 4 4 4 4 4 4 4 4 4 4 4 4
6 6 6 6 6 6 5 5 5 5 5 5 5 6 6 7 6 6 6 5 5 4 4 3 3 3 3 2 2 2 2 3 3 4 4 4 5 6 5 4 4 4 4
6 6 7 7 7 8 7 7 6 5 5 5 5 5 6 6 6 6 5 4 4 4 3 3 3 3 2 2 2 2 2 2 3 3 4 4 5 6 5 5 4 4 4
6 6 7 8 8 8 8 8 7 6 5 5 4 5 5 6 6 5 5 4 3 3 3 2 2 2 2 2 1 1 1 2 2 3 4 4 4 5 5 5 5 5 5
6 6 6 7 8 7 7 7 7 6 6 4 4 4 4 5 5 5 5 4 3 2 2 2 2 2 1 1 0 0 1 2 2 3 3 4 5 5 5 5 5 6 6
6 6 7 7 7 7 7 6 6 6 6 5 4 4 3 4 4 4 4 3 3 3 2 1 1 1 1 1 1 1 1 2 3 3 4 4 5 6 6 6 6 6 6
6 6 6 6 6 7 6 6 6 6 6 6 6 5 4 3 4 4 3 3 3 3 2 2 1 0 1 1 1 1 2 3 4 4 5 4 5 6 7 7 6 7 7
6 6 6 6 6 6 6 6 5 5 6 6 6 5 4 4 3 3 3 3 2 2 2 2 2 2 2 2 2 2 3 4 4 4 5 5 5 6 6 7 7 7 7
6 6 6 6 6 6 6 5 5 5 5 6 6 5 4 3 3 3 3 3 2 2 2 2 2 2 2 3 3 4 4 4 4 5 6 5 5 6 6 7 8 7 8
6 6 6 6 5 6 6 5 5 5 5 5 5 5 4 3 4 3 3 4 3 3 3 3 3 3 3 3 3 4 5 5 5 5 5 6 6 6 7 8 8 8 8
5 5 6 6 5 5 5 5 5 5 5 6 5 5 4 3 4 3 4 4 4 4 4 4 4 4 4 4 4 5 5 6 6 6 7 7 6 7 7 8 8 9 9
5 5 5 5 5 5 5 5 5 6 5 6 6 5 4 4 4 4 4 4 5 5 5 4 5 5 5 5 5 5 6 6 6 7 8 7 8 8 9 9 10 10 10
4 5 5 5 5 5 5 5 5 6 6 6 6 5 5 4 3 4 4 5 5 5 5 5 5 5 6 6 6 7 7 7 8 9 8 9 9 9 10 10 10 11 12
5 5 5 6 6 5 5 5 6 6 6 6 5 5 5 4 4 4 4 5 5 5 6 6 6 6 6 7 7 7 8 9 8 9 10 10 10 10 10 10 11 12 12
5 5 5 6 6 6 6 5 6 6 6 6 6 5 5 5 4 4 4 5 5 6 6 7 7 7 7 8 8 9 9 10 9 10 11 10 10 11 11 12 13 13 13
5 5 5 6 6 7 7 7 7 7 7 7 7 5 5 6 6 6 5 5 6 6 7 8 8 8 8 8 9 9 10 11 11 11 11 11 11 12 12 12 12 12 12
6 6 6 6 6 7 7 8 8 9 9 9 7 6 6 7 7 7 6 7 7 8 8 9 9 9 9 9 10 11 12 12 12 12 13 13 13 13 13 13 13 13 13
Wind_Direction
74 80 82 74 71 81 81 64 60 67 74 71 73 77 84 118 130 134 140 137 133 130 134 135 142 147 148 146 151 153 157 162 161 161 156 150 146 132 125 89 61 44 33
49 63 75 70 58 51 70 59 47 61 74 75 76 76 86 109 127 130 135 131 127 130 134 137 140 144 140 135 143 142 148 153 147 150 132 121 131 107 103 100 60 36 34
35 51 59 44 31 34 63 47 32 53 75 83 95 87 85 100 116 123 129 132 132 134 132 136 142 138 135 134 134 128 126 139 135 122 115 112 100 97 84 55 31 16 16
23 39 46 43 25 24 40 40 38 65 76 78 95 99 101 107 113 118 124 131 132 137 138 139 133 132 130 128 131 119 115 130 133 107 114 102 79 81 66 55 39 15 5
33 51 55 51 37 29 22 5 19 79 88 92 94 108 107 107 111 119 123 125 129 134 138 135 130 133 126 122 121 117 108 104 111 108 105 98 81 71 59 49 37 26 3
48 52 53 45 40 32 19 4 17 80 93 104 102 115 116 116 117 120 123 125 133 130 130 129 125 129 122 116 114 108 100 93 92 93 91 87 69 55 47 33 17 8 359
55 54 55 42 39 31 28 41 44 92 105 108 115 123 118 118 117 120 128 123 123 118 118 128 123 123 118 110 109 108 100 96 91 79 84 76 59 49 44 31 12 360 353
51 49 48 45 39 40 40 41 56 79 97 114 124 129 126 120 117 121 125 123 124 122 125 129 126 134 126 115 117 110 104 91 78 74 72 62 48 36 30 24 11 1 356
54 53 55 48 44 48 53 59 59 92 106 111 118 125 125 122 119 119 126 128 130 132 131 133 132 124 116 113 114 102 84 72 65 57 60 42 34 27 19 19 11 1 353
50 52 56 43 41 47 51 56 71 85 99 107 117 121 116 119 122 122 127 130 134 137 133 126 119 114 106 103 95 76 63 62 60 55 42 30 27 23 18 14 4 3 351
45 46 49 49 50 52 52 59 69 77 96 101 106 109 113 115 121 125 129 131 133 127 124 116 117 116 115 107 89 77 61 56 48 46 35 27 20 13 13 9 4 357 357
41 41 47 52 56 59 61 69 75 74 94 99 105 105 109 109 116 117 125 127 122 120 122 119 124 134 124 102 83 84 70 49 32 28 25 17 8 7 9 7 6 359 358
41 43 48 55 60 62 67 71 69 70 86 93 97 95 107 111 115 112 114 115 114 114 118 123 122 118 109 82 76 73 60 42 23 8 6 2 4 4 360 358 354 346 347
44 46 52 56 58 63 65 67 68 69 67 73 92 91 108 111 112 108 106 102 104 94 93 104 106 113 109 71 41 67 39 12 357 350 351 348 352 353 348 345 343 341 338
49 50 55 55 58 59 64 65 68 65 60 62 68 73 89 108 111 107 105 93 81 65 68 81 96 84 66 51 33 6 355 349 344 340 336 337 342 345 343 341 339 334 338
55 57 55 56 57 56 57 62 59 58 59 54 51 56 75 93 105 101 85 75 65 56 55 58 83 20 13 16 355 339 349 347 345 340 336 341 344 342 341 342 341 338 338
55 57 56 52 52 53 53 55 54 51 48 46 41 41 54 57 64 74 55 55 50 39 34 21 5 349 343 346 346 350 351 347 342 333 335 339 338 340 340 336 333 330 328
49 49 47 46 45 47 49 50 48 42 32 31 33 37 41 40 40 53 43 35 22 20 17 9 6 344 332 332 330 330 331 329 328 328 336 344 338 339 337 327 326 323 322
45 44 42 42 40 40 41 40 36 29 22 22 25 23 24 26 36 40 26 18 7 357 359 353 348 342 337 332 327 327 324 319 317 323 332 339 341 341 334 325 324 324 324
40 38 35 37 34 34 33 30 23 20 17 15 17 15 18 26 23 23 12 5 359 350 344 346 342 331 328 328 329 333 327 322 328 322 324 329 330 331 327 327 325 324 321
33 30 26 25 26 24 24 22 16 13 12 12 14 12 10 10 12 12 7 358 356 350 351 349 346 340 329 319 324 329 331 328 330 327 326 327 324 323 322 322 325 325 320
29 30 25 23 17 15 11 6 7 3 3 5 4 6 6 360 354 353 358 356 350 346 342 342 334 334 333 326 319 320 326 329 325 317 317 320 323 323 321 323 326 329 327
16 15 15 15 11 6 4 358 352 352 355 355 353 352 353 351 340 344 345 346 345 339 340 336 331 327 324 323 317 313 315 319 317 313 316 318 318 318 322 325 326 326 328
359 4 1 358 353 348 348 345 341 336 337 340 339 336 339 339 332 324 324 326 329 332 328 326 326 320 316 319 320 314 312 314 308 306 309 310 311 313 315 319 322 324 325
342 347 349 348 343 339 333 328 328 328 328 328 328 328 328 331 332 320 307 307 314 319 317 316 315 311 311 315 318 318 316 314 311 312 309 305 307 311 314 314 318 322 323
323 327 332 333 332 333 329 324 319 322 323 324 324 320 318 319 324 322 313 306 305 311 311 311 310 304 304 309 309 311 312 312 312 310 308 308 305 306 308 311 317 319 317
Height
5874 5873 5873 5873 5873 5873 5872 5872 5871 5871 5870 5869 5869 5868 5866 5866 5866 5867 5868 5869 5871 5872 5872 5873 5875 5877 5878 5880 5881 5883 5884 5885 5886 5888 5889 5889 5890 5891 5891 5892 5892 5892 5892
5875 5875 5874 5874 5874 5874 5873 5873 5873 5872 5871 5870 5869 5868 5867 5866 5866 5867 5869 5870 5871 5873 5874 5875 5877 5879 5880 5881 5882 5884 5884 5886 5887 5888 5889 5890 5890 5891 5891 5892 5892 5892 5893
5876 5876 5875 5875 5875 5875 5874 5874 5874 5873 5872 5871 5870 5870 5869 5868 5868 5869 5870 5871 5873 5875 5876 5877 5878 5880 5881 5882 5884 5885 5885 5886 5887 5888 5889 5890 5891 5891 5892 5892 5892 5893 5893
5877 5877 5876 5876 5876 5876 5875 5875 5874 5874 5873 5872 5871 5871 5871 5870 5870 5871 5872 5873 5875 5876 5878 5879 5881 5882 5883 5884 5885 5886 5887 5888 5888 5889 5889 5890 5891 5892 5892 5892 5892 5893 5893
5878 5878 5877 5877 5877 5876 5876 5875 5874 5874 5873 5873 5872 5872 5872 5872 5873 5873 5874 5875 5877 5878 5879 5881 5882 5883 5884 5886 5887 5887 5888 5889 5889 5890 5891 5891 5892 5892 5892 5892 5893 5893 5893
5879 5879 5878 5878 5878 5877 5876 5875 5874 5874 5873 5873 5873 5873 5873 5874 5875 5875 5877 5878 5879 5880 5881 5882 5883 5885 5886 5887 5888 5889 5889 5890 5891 5891 5892 5892 5893 5893 5892 5893 5893 5893 5893
5880 5880 5880 5879 5879 5878 5877 5876 5875 5874 5873 5873 5874 5874 5875 5876 5877 5878 5879 5880 5880 5881 5883 5884 5885 5886 5888 5889 5889 5890 5890 5891 5892 5892 5892 5893 5893 5893 5893 5893 5893 5893 5893
5882 5881 5880 5880 5880 5879 5878 5876 5875 5874 5873 5873 5874 5875 5877 5878 5879 5880 5881 5881 5882 5883 5884 5886 5887 5888 5889 5890 5890 5891 5891 5892 5892 5893 5893 5893 5893 5893 5893 5893 5893 5893 5893
5883 5883 5882 5882 5881 5880 5878 5877 5876 5875 5875 5875 5875 5876 5878 5879 5881 5882 5883 5883 5884 5885 5886 5887 5888 5889 5890 5891 5891 5892 5892 5892 5893 5893 5893 5894 5894 5893 5893 5893 5893 5893 5893
5885 5884 5884 5883 5881 5880 5879 5878 5877 5877 5877 5877 5877 5878 5880 5881 5882 5883 5884 5885 5886 5886 5887 5888 5889 5890 5891 5892 5892 5893 5893 5893 5894 5894 5894 5894 5894 5894 5893 5893 5893 5893 5893
5886 5886 5885 5884 5883 5881 5880 5879 5879 5879 5879 5879 5880 5881 5882 5883 5884 5885 5886 5887 5887 5888 5889 5889 5890 5891 5892 5892 5893 5893 5894 5894 5895 5894 5894 5894 5894 5894 5894 5893 5893 5893 5893
5888 5887 5886 5886 5884 5883 5881 5880 5881 5882 5882 5882 5883 5883 5884 5885 5886 5887 5887 5888 5889 5889 5890 5890 5891 5892 5893 5893 5893 5894 5894 5895 5895 5894 5894 5894 5894 5894 5894 5893 5893 5892 5892
5890 5889 5888 5887 5887 5886 5884 5884 5884 5885 5885 5885 5885 5885 5886 5887 5888 5888 5889 5889 5890 5890 5891 5891 5892 5892 5893 5894 5894 5894 5895 5895 5895 5895 5895 5895 5894 5894 5894 5893 5893 5892 5892
5892 5891 5890 5890 5889 5888 5888 5888 5887 5887 5887 5887 5887 5888 5888 5888 5889 5890 5890 5891 5891 5892 5892 5893 5893 5894 5894 5895 5895 5895 5895 5895 5895 5895 5895 5895 5894 5894 5893 5893 5892 5892 5891
5894 5893 5892 5892 5892 5891 5891 5890 5890 5890 5890 5890 5890 5890 5890 5890 5891 5891 5892 5892 5892 5893 5893 5894 5894 5894 5895 5895 5895 5895 5895 5895 5895 5895 5894 5894 5894 5894 5893 5893 5892 5892 5891
5896 5895 5894 5894 5894 5894 5893 5893 5893 5893 5892 5892 5892 5892 5891 5892 5892 5892 5893 5893 5894 5894 5894 5894 5894 5895 5895 5895 5895 5895 5895 5895 5895 5895 5894 5894 5893 5893 5893 5892 5891 5891 5890
5897 5897 5897 5896 5896 5896 5895 5895 5895 5894 5894 5894 5894 5893 5893 5893 5893 5893 5894 5894 5895 5894 5895 5895 5895 5895 5895 5895 5895 5895 5895 5895 5894 5894 5894 5894 5893 5892 5892 5891 5891 5890 5889
5899 5899 5898 5898 5898 5897 5897 5897 5897 5896 5896 5896 5895 5895 5895 5895 5894 5894 5895 5895 5895 5895 5895 5895 5895 5895 5895 5895 5895 5895 5895 5894 5894 5894 5894 5893 5893 5892 5891 5890 5890 5889 5888
5900 5900 5900 5900 5899 5899 5899 5899 5899 5898 5898 5898 5897 5897 5896 5896 5896 5896 5896 5896 5896 5896 5896 5895 5895 5895 5895 5895 5895 5895 5894 5894 5894 5893 5893 5892 5892 5891 5890 5889 5888 5888 5887
5902 5902 5901 5901 5901 5901 5901 5900 5900 5900 5899 5899 5898 5898 5898 5897 5897 5897 5897 5897 5896 5896 5896 5896 5896 5895 5895 5895 5895 5895 5894 5894 5893 5892 5892 5891 5891 5890 5889 5888 5887 5886 5885
5903 5903 5903 5902 5902 5902 5902 5902 5902 5901 5901 5900 5899 5899 5899 5899 5898 5898 5898 5897 5897 5897 5896 5896 5896 5895 5895 5895 5895 5895 5894 5893 5892 5892 5891 5890 5890 5889 5888 5887 5886 5885 5884
5904 5904 5904 5903 5903 5903 5903 5903 5903 5902 5901 5901 5900 5899 5899 5899 5899 5899 5898 5898 5898 5897 5897 5897 5896 5896 5895 5895 5895 5894 5893 5893 5892 5891 5890 5890 5889 5888 5887 5886 5885 5883 5882
5905 5905 5905 5904 5904 5904 5904 5903 5903 5903 5902 5901 5901 5900 5900 5899 5899 5899 5899 5899 5898 5898 5897 5896 5896 5895 5895 5894 5894 5893 5893 5892 5891 5890 5889 5888 5887 5886 5885 5884 5883 5881 5880
5906 5906 5905 5905 5905 5905 5904 5904 5904 5903 5903 5902 5901 5900 5900 5900 5899 5899 5899 5899 5898 5898 5897 5896 5895 5894 5894 5893 5892 5891 5891 5890 5889 5889 5888 5886 5885 5884 5883 5882 5881 5879 5878
5906 5906 5906 5906 5905 5905 5905 5904 5904 5903 5903 5902 5901 5901 5900 5900 5899 5899 5898 5898 5897 5897 5896 5895 5894 5893 5893 5892 5891 5890 5889 5888 5887 5886 5886 5885 5883 5882 5881 5880 5878 5877 5876
5906 5906 5906 5905 5905 5905 5904 5904 5903 5903 5902 5902 5901 5901 5900 5899 5899 5898 5898 5897 5897 5896 5895 5894 5893 5892 5891 5890 5889 5888 5887 5886 5885 5884 5883 5882 5881 5880 5879 5878 5876 5874 5873